Probability
0 0 0 0 0 0 0 0 0 0 0 0 0 0 0 0 0 0 0 0 0 0 0 0 0 0 0 0 0 0 0 0 0 0 0 0 0 0 0 0 0 0 0 0
0 0 0 0 0 0 0 0 0 0 0 0 0 0 0 0 0 0 0 0 0 0 0 0 0 0 0 0 0 0 0 0 0 0 0 0 0 0 0 0 0 0 0 0
0 0 0 0 0 0 0 0 0 0 0 0 0 0 0 0 0 0 0 0 0 0 0 0 0 0 0 0 0 0 0 0 0 0 0 0 0 0 0 0 0 0 0 0
0 0 0 0 0 0 0 0 0 0 0 0 0 0 0 0 0 0 0 0 0 0 0 0 0 0 0 0 0 0 0 0 0 0 0 0 0 0 0 0 0 0 0 0
0 0 0 0 0 0 0 0 0 0 0 0 0 0 0 0 0 0 0 0 0 0 0 0 0 0 0 0 0 0 0 0 0 0 0 0 0 0 0 0 0 0 0 0
0 0 0 0 0 0 0 0 0 0 0 0 0 0 0 0 0 0 0 0 0 0 0 0 0 0 0 0 0 0 0 0 0 0 0 0 0 0 0 0 0 0 0 0
0 0 0 0 0 0 0 0 0 0 0 0 0 0 0 0 0 0 0 0 0 0 0 0 0 0 0 0 0 0 0 0 0 0 0 0 0 0 0 0 0 0 0 0
0 0 0 0 0 0 0 0 0 0 0 0 0 0 0 0 0 0 0 0 0 0 0 0 0 0 0 0 0 0 0 0 0 0 0 0 0 0 0 0 0 0 0 0
0 0 0 0 0 0 0 0 0 0 0 0 0 0 0 0 0 0 0 0 0 0 0 0 0 0 0 0 0 0 0 0 0 0 0 0 0 0 0 0 0 0 0 0
0 0 0 0 0 0 0 0 0 0 0 0 0 0 0 0 0 0 0 0 0 0 0 0 0 0 0 0 0 0 0 0 0 0 0 0 0 0 0 0 0 0 0 0
0 0 0 0 0 0 0 0 0 0 0 0 0 0 0 0 0 0 0 0 0 0 0 0 0 0 0 0 0 0 0 0 0 0 0 0 0 0 0 0 0 0 0 0
0 0 0 0 0 0 0 0 0 0 0 0 0 0 0 0 0 0 0 0 0 0 0 0 0 0 0 0 0 0 0 0 0 0 0 0 0 0 0 0 0 0 0 0
0 0 0 0 0 0 0 0 0 0 0 0 0 0 0 0 0 0 0 0 0 0 0 0 0 0 0 0 0 0 0 0 0 0 0 0 0 0 0 0 0 0 0 0
0 0 0 0 0 0 0 0 0 0 0 0 0 0 0 0 0 0 0 0 0 0 0 0 0 0 0 0 0 0 0 0 0 0 0 0 0 0 0 0 0 0 0 0
0 0 0 0 0 0 0 0 0 0 0 0 0 0 0 0 0 0 0 0 0 0 0 0 0 0 0 0 0 0 0 0 0 0 0 0 0 0 0 0 0 0 0 0
0 0 0 0 0 0 0 0 0 0 0 0 0 0 0 0 0 0 0 0 0 0 0 0 0 0 0 0 0 0 0 0 0 0 0 0 0 0 0 0 0 0 0 0
0 0 0 0 0 0 0 0 0 0 0 0 0 0 0 0 0 0 0 0 0 0 0 0 0 0 0 0 0 0 0 0 0 0 0 0 0 0 0 0 0 0 0 0
0 0 0 0 0 0 0 0 0 0 0 0 0 0 0 0 0 0 0 0 0 0 0 0 0 0 0 0 0 0 0 0 0 0 0 0 0 0 0 0 0 0 0 0
0 0 0 0 0 0 0 0 0 0 0 0 0 0 0 0 0 0 0 0 0 0 0 0 0 0 0 0 0 0 0 0 0 0 0 0 0 0 0 0 0 0 0 0
0 0 0 0 0 0 0 0 0 0 0 0 0 0 0 0 0 0 0 0 0 0 0 0 0 0 0 0 0 0 0 0 0 0 0 0 0 0 0 0 0 0 0 0
0 0 0 0 0 0 0 0 0 0 0 0 0 0 0 0 0 0 0 0 0 0 0 0 0 0 0 0 0 0 0 0 0 0 0 0 0 0 0 0 0 0 0 0
0 0 0 0 0 0 0 0 0 0 0 0 0 0 0 0 0 0 0 0 0 0 0 0 0 0 0 0 0 0 0 0 0 0 0 0 0 0 0 0 0 0 0 0
0 0 0 0 0 0 0 0 0 0 0 0 0 0 0 0 0 0 0 0 0 0 0 0 0 0 0 0 0 0 0 0 0 0 0 0 0 0 0 0 0 0 0 0
0 0 0 0 0 0 0 0 0 0 0 0 0 0 0 0 0 0 0 0 0 0 0 0 0 0 0 0 0 0 0 0 0 0 0 0 0 0 0 0 0 0 0 0
0 0 0 0 0 0 0 0 0 0 0 0 0 0 0 0 0 0 0 0 0 0 0 0 0 0 0 0 0 0 0 0 0 0 0 0 0 0 0 0 0 0 0 0
0 0 0 0 0 0 0 0 0 0 0 0 0 0 0 0 0 0 0 0 0 0 0 0 0 0 0 0 0 0 0 0 0 0 0 0 0 0 0 0 0 0 0 0
0 0 0 0 0 0 0 0 0 0 0 0 0 0 0 0 0 0 0 0 0 0 0 0 0 0 0 0 0 0 0 0 0 0 0 0 0 0 0 0 0 0 0 0
Wind_Speed
4 4 4 3 3 4 4 4 4 3 3 4 3 4 6 6 7 7 7 7 7 6 6 6 7 7 7 7 7 7 8 8 8 7 7 8 8 7 7 7 8 6 6 5
2 3 4 3 3 3 3 3 3 2 2 3 2 2 4 5 6 6 6 7 7 6 5 6 6 6 6 7 7 6 7 8 7 8 8 8 7 7 7 7 6 6 5 5
2 3 2 1 4 4 2 3 4 3 4 2 1 1 2 3 5 5 5 6 6 5 4 3 4 4 5 5 5 6 7 7 7 7 7 7 7 7 7 6 6 6 5 5
2 2 2 6 3 5 4 2 3 3 3 4 4 2 2 2 2 4 5 5 5 5 4 3 3 3 4 5 5 6 6 6 6 6 6 6 6 7 6 5 5 5 5 5
3 2 2 3 3 5 4 2 3 4 2 3 3 2 4 3 1 2 3 3 3 3 2 2 2 2 4 4 5 5 5 5 5 5 6 6 6 6 5 5 5 5 5 6
3 2 5 7 5 4 4 2 3 5 4 4 4 2 4 4 2 2 3 3 3 3 2 2 1 2 4 3 4 4 3 3 4 4 5 5 5 5 4 4 5 5 7 7
2 3 5 4 5 6 4 7 5 6 6 5 4 5 5 3 2 2 2 3 3 3 2 2 1 1 2 2 2 1 2 3 4 4 5 5 5 5 5 5 6 6 7 7
4 3 7 5 7 8 8 4 6 6 5 5 3 2 1 1 2 3 3 4 3 3 3 3 2 0 1 1 1 1 3 4 4 5 5 5 6 6 6 6 6 6 6 6
8 8 5 7 7 6 6 7 6 6 5 5 3 2 1 1 2 3 4 4 3 2 3 4 3 1 1 2 1 2 3 3 4 5 5 5 6 6 5 5 5 5 5 6
2 4 3 4 3 5 6 7 7 6 6 5 4 2 1 0 2 3 4 4 3 3 4 4 4 3 2 1 2 4 4 3 3 4 4 5 5 5 5 5 5 5 5 5
3 3 2 4 5 7 6 7 7 6 6 6 5 3 2 0 2 2 3 3 3 4 4 4 3 3 2 1 4 4 4 3 3 3 3 4 4 4 4 4 3 3 3 3
8 9 9 9 8 9 9 9 8 8 6 5 5 4 2 1 1 2 2 3 4 5 4 4 2 2 2 2 4 5 3 3 2 2 2 2 3 3 6 5 6 7 5 4
7 7 7 6 9 10 10 10 8 8 8 6 4 4 3 2 1 1 2 3 4 5 4 2 1 1 2 1 3 4 4 3 2 3 3 3 2 2 1 3 5 6 7 8
6 7 4 6 9 9 9 9 8 7 7 7 5 4 3 2 1 1 3 3 4 4 3 1 1 1 2 0 3 3 3 3 3 3 3 3 3 2 2 1 1 2 4 6
6 6 7 6 8 8 8 7 7 7 6 6 5 4 4 3 3 3 4 3 3 3 3 1 1 2 2 0 3 3 3 2 2 2 2 2 2 3 2 2 1 1 2 3
5 5 7 8 9 9 8 8 9 8 7 7 6 6 6 5 3 3 3 2 2 2 2 1 1 2 2 0 2 2 2 4 4 2 2 2 2 2 3 2 2 1 1 0
8 7 7 8 9 8 9 9 9 9 8 8 8 7 6 4 2 2 3 3 2 2 2 2 2 3 2 1 2 2 2 3 4 2 2 2 3 3 3 3 3 2 1 1
9 10 9 11 10 9 8 8 8 8 8 8 8 7 6 5 4 4 4 2 1 1 1 2 3 3 2 1 2 2 2 2 2 3 2 3 3 3 3 4 4 4 2 1
6 8 9 9 10 9 9 8 8 8 7 7 8 8 7 6 5 5 3 2 1 2 4 4 4 2 2 1 0 1 2 3 3 3 3 4 3 3 3 4 4 4 4 3
5 7 8 9 9 8 8 8 7 7 7 8 8 7 6 6 5 5 3 3 4 5 4 4 3 2 2 1 0 1 2 3 3 3 3 3 4 4 4 4 4 5 4 4
4 5 7 8 8 8 8 8 8 8 7 8 8 8 8 6 5 4 4 4 5 5 4 4 2 2 2 2 2 1 2 3 3 4 4 4 4 4 4 4 5 5 5 4
1 3 5 6 6 6 6 7 7 8 8 7 7 7 6 6 5 4 5 5 5 6 4 3 3 4 4 3 2 2 3 3 3 4 4 4 4 4 4 5 5 5 5 5
1 1 3 4 6 6 5 5 7 7 8 8 8 8 7 6 5 4 5 5 4 6 5 4 5 8 7 3 3 3 4 4 3 4 5 5 5 5 5 5 5 5 5 5
4 2 1 2 3 4 5 5 6 6 7 7 8 8 7 5 4 5 5 5 7 8 5 6 9 9 7 3 3 4 4 4 4 4 4 5 5 5 5 5 5 5 5 6
5 4 3 2 2 3 5 5 4 5 5 5 6 7 6 6 6 5 5 6 8 8 5 7 10 9 5 3 4 4 4 4 4 4 4 4 5 5 5 5 5 6 6 6
4 4 3 2 2 2 2 2 3 4 4 4 5 5 5 5 5 5 4 6 7 7 6 5 5 5 4 4 4 5 4 5 4 4 4 5 5 5 5 5 7 6 6 6
4 4 3 3 3 2 1 2 3 4 5 6 6 6 6 5 5 5 6 5 5 5 5 5 5 4 4 4 5 5 4 4 4 4 4 4 4 5 6 7 6 5 5 6
Wind_Direction
153 161 130 121 103 80 94 144 150 206 243 277 294 309 320 329 337 351 356 358 359 2 2 6 13 17 20 21 21 25 31 35 33 29 31 36 39 36 37 42 49 47 50 46
148 163 132 112 134 116 110 128 143 178 258 247 251 310 334 339 351 359 358 356 355 2 14 15 17 20 22 23 20 27 35 34 32 34 34 34 34 37 40 40 40 48 51 47
199 184 109 257 202 173 159 169 166 189 227 217 199 313 321 335 352 353 353 356 0 2 10 12 16 27 26 20 27 34 35 33 32 35 36 32 35 38 36 33 36 41 40 39
125 122 237 252 216 160 156 190 191 197 209 197 199 230 275 276 349 349 350 351 352 356 5 11 29 38 36 35 38 38 33 30 28 33 34 29 32 33 28 27 33 34 31 28
116 157 269 277 203 170 161 220 202 173 181 176 161 41 341 305 303 318 328 335 338 352 17 31 39 48 54 39 35 38 32 28 26 32 34 30 28 24 21 31 34 32 28 28
121 160 235 241 206 159 116 243 224 155 139 142 121 73 282 287 312 337 337 341 349 353 20 32 12 60 63 40 34 30 27 28 31 39 41 35 28 24 23 32 34 35 36 30
164 219 260 246 148 117 159 228 190 151 148 144 164 199 237 272 320 335 336 334 351 6 356 324 293 89 67 34 13 3 40 42 38 37 43 39 36 31 31 37 38 35 35 28
164 202 254 194 142 176 210 175 146 146 154 153 173 193 202 24 349 344 340 336 347 356 342 323 310 101 63 311 286 55 63 54 47 38 42 45 45 38 32 36 40 32 29 26
184 210 235 179 186 196 155 148 153 152 156 147 144 134 111 22 356 341 340 338 339 344 340 332 326 288 253 268 210 106 86 75 63 57 47 43 49 43 36 34 40 34 33 31
192 258 204 188 168 152 154 152 158 152 145 139 141 134 108 22 339 339 337 337 341 351 346 328 320 323 288 272 137 118 110 104 88 78 62 49 47 45 46 37 36 36 35 28
206 229 188 225 189 163 152 144 146 146 146 148 144 140 143 198 315 328 332 328 337 341 330 318 315 327 344 58 118 112 112 116 109 95 91 72 59 46 45 37 37 50 37 22
209 200 180 206 198 167 154 160 160 155 157 160 158 163 157 206 285 312 328 331 337 336 330 324 333 334 352 63 124 124 121 132 142 131 119 109 95 60 34 38 42 50 50 47
192 179 181 189 180 171 164 168 166 164 167 171 173 170 163 191 258 301 325 330 329 324 320 325 351 344 332 63 126 134 144 153 155 158 157 160 152 127 74 11 24 34 36 44
155 132 149 165 175 175 167 167 164 163 167 169 172 171 163 171 220 293 301 298 315 332 341 2 43 350 321 111 129 140 151 162 157 165 174 179 181 178 164 142 37 357 7 36
164 159 169 167 160 164 161 155 157 169 173 177 178 176 178 189 226 262 280 291 333 357 356 22 44 341 330 131 148 158 161 169 166 164 166 172 169 163 162 154 129 65 14 18
171 144 146 149 163 169 164 167 173 184 186 188 189 194 198 203 226 261 279 288 325 312 297 262 297 305 314 169 158 166 193 195 174 168 169 164 158 153 156 154 144 133 111 32
155 165 170 175 178 178 178 178 182 187 189 194 199 198 195 197 219 262 279 290 293 268 231 218 274 298 311 223 185 195 208 212 190 170 175 177 172 173 172 166 164 167 189 194
187 184 179 179 180 182 186 185 186 187 192 200 193 185 186 192 210 235 254 277 336 344 273 266 292 310 324 325 187 191 196 208 202 193 193 189 186 182 177 175 174 176 185 178
188 184 183 183 183 181 184 188 192 194 193 184 178 186 194 202 210 222 228 226 239 253 262 275 306 331 332 333 140 191 204 212 216 214 204 197 187 182 179 181 185 186 182 180
189 186 185 188 187 182 188 192 188 187 186 177 176 183 197 210 212 213 210 222 229 227 243 265 285 296 297 308 4 222 226 218 215 216 205 198 199 201 195 192 189 187 186 187
192 189 187 188 192 194 193 188 182 187 187 178 178 188 199 210 211 200 196 234 253 235 240 261 257 258 267 282 298 263 247 231 219 213 207 206 208 208 205 199 193 191 189 188
197 192 194 189 186 192 196 186 182 183 181 183 188 187 190 204 211 212 219 222 238 227 220 241 244 250 261 276 279 273 262 247 231 217 210 206 204 207 208 202 199 196 190 186
2 206 197 192 189 189 183 183 184 180 183 187 189 190 195 202 196 195 236 241 228 224 215 231 242 254 268 272 265 269 265 257 241 226 216 209 205 203 203 202 198 192 187 188
20 10 296 214 171 161 181 202 198 194 195 198 199 197 193 199 220 222 220 234 223 223 220 237 252 261 268 255 258 262 261 260 253 239 225 216 209 205 203 198 195 194 192 190
15 11 15 50 157 204 214 212 203 205 203 212 219 214 205 195 202 217 213 223 230 225 229 247 258 266 262 249 252 254 254 253 254 245 227 216 209 206 204 198 195 193 192 194
1 354 341 302 250 241 228 206 209 215 206 215 228 225 218 215 216 216 215 222 226 223 223 237 250 260 252 250 253 254 253 261 271 254 233 221 213 206 203 202 200 197 197 197
342 345 345 342 331 309 275 226 220 224 215 212 223 226 219 215 214 217 220 223 224 227 229 234 237 240 245 248 253 256 255 255 254 248 237 225 216 211 209 206 202 199 197 196